Back to catalog

SBS 1

AliveCommunicationsGEO
NORAD 12065·PAYLOAD·🇺🇸 United States

Launched Nov 15, 1980 from Cape Canaveral Space Force Station

Loading…

TLE

FreshSource: Space-Track

Epoch: Sep 13, 2026, 17:34 UTC

1 12065U 80091A   26256.73210786  .00000066  00000-0  00000-0 0  9999
2 12065   9.8458 317.2229 0008833 205.8091 155.5968  0.99814212 47368

Track SBS 1 in real time with AllMySat

Download on the App Store